Voltar ao catálogo

COSMOS 2251 DEB

AtivoLEO
NORAD 34729·DEBRIS·🇷🇺 Russia

Lançado Jun 16, 1993 de Plesetsk Cosmodrome

Loading…

Próximas Passagens (próximas 24 horas)

TLE

AtualizadoSource: Space-Track

Época: Sep 14, 2026, 13:12 UTC

1 34729U 93036YX  26257.55034324  .00009004  00000-0  93395-3 0  9999
2 34729  74.0149 168.5420 0016800 219.0337 196.2385 14.89990543925572

Acompanhe COSMOS 2251 DEB em tempo real com AllMySat

Download on the App Store